Погода в Маупити

Французская Полинезия     16°26′27″S   152°15′00″W
темп.,
°C
ветер,
м/с
пор.,
м/с
влажн.,
%
обл.,
%
осадки,
мм/ч
давл.,
гПа
погр.,
м
1 марта, пн
пн123:00+28ююз3377100 0.5 1012574
02:00+28ююз2375100 0.6 1012671
05:00+28с1175100 1.8 1011170
08:00+28ююз1174100 4.8 101495
11:00+28ю1170100 0.7 1013414
14:00+28юз3369100 0.7 1011770
17:00+28ю347397 0.0 1010826
20:00+28ююв337592 0.0 1013761
2 марта, вт
вт223:00+28юв337470 0.1 1013691
02:00+28ююв447783 0.3 1012548
05:00+28ююв447472 0.1 1011574
08:00+28вюв447440 0.1 1013579
11:00+28вюв33740 0.0 1012696
14:00+28юв337441 0.3 1011642
17:00+28вюв237518 0.5 1010689
20:00+28в227322 1.1 1012594
3 марта, ср
ср323:00+28вюв116937 0.3 1012719
02:00+28ююв227333 0.6 1010608
05:00+28ююв447839 0.4 1010666
08:00+28юв557942 0.8 1012703
11:00+28вюв447612 0.2 1012703
14:00+28вюв337616 0.9 1010681
17:00+28вюв337636 5.1 1009464
20:00+28юв337565 8.0 1011444
4 марта, чт
чт423:00+28вюв447495 4.8 1012528
02:00+28св126954 4.8 1010583
05:00+28с33725 0.0 1010782
08:00+28ссв33724 0.0 1012861
11:00+28ссв226983 0.0 1012910
14:00+28с226750 0.0 1010816
17:00+29ссз2265100 0.0 1010949
20:00+29всв1164100 0.0 1012710
5 марта, пт
пт523:00+28вюв116682 0.0 1012769
02:00+28в226791 0.1 1011589
05:00+28всв2369100 0.0 1011742
08:00+28св3369100 0.0 1013861
11:00+28св447441 0.0 1013782
14:00+28ссз447138 0.1 1011851
17:00+28сз336937 3.3 1010863
20:00+28ссз226945 4.9 1012834